Main page
METAR-TAF:

METAR-TAF

Airports :

Bandar Lengeh Airport

Bandar Lengeh, Iran

latitude: 26-35N, longitude: 054-50E, elevation: 14 m

Current weather observation

The report was made 1 hour and 6 minutes ago, at 18:00 UTC
Wind 4 kt from the West
Temperature 36°C
Humidity 57%
Pressure 996 hPa
Visibility: 5000 m
haze,

METAR: OIBL 161800Z 27004KT 5000 HZ NSC 36/26 Q0996

Time: 23:36 (19:06 UTC)


TAF: missing

Weather observations and forecasts of more than 4000 airports (METAR and TAF reports).

The available stations are represented by yellow and red dots on the map.

Hover mouse over dot to see the name of the station.

Then click to see weather observations and forecasts.

To change the map : click on the green buttons with a black cross to zoom in, on the green button with a dash to zoom out, or on the green arrows for adjacent maps.


METAR-TAF: